Regional Weather Roundup
Issued by NWS Pendleton, OR

Home | Current Version | Previous Version | Text Only | Print | Product List | Glossary On
Versions: 1 2 3 4 5 6 7 8 9 10 11 12 13 14 15 16 17 18 19 20 21 22 23 24 25 26 27 28 29 30 31 32 33 34 35 36 37 38 39 40 41 42 43 44 45 46 47 48 49 50
000
ASUS46 KPDT 250404
RWRPDT
PENDLETON REGIONAL WEATHER ROUNDUP
NATIONAL WEATHER SERVICE PENDLETON OREGON
900 PM PDT TUE MAY 24 2016

NOTE: FAIR INDICATES FEW OR NO CLOUDS BELOW 12,000 FEET WITH NO
SIGNIFICANT WEATHER AND/OR OBSTRUCTIONS TO VISIBILITY.

# INDICATES UNOFFICIAL STATION AND DATA

WAZ520-250510-
EAST SLOPES OF WASHINGTON CASCADES

CITY            SKY/WX      TMP DP  RH  WIND    PRES   REMARKS
#CLE ELUM HS    N/A         54  44  69  W3      29.91R
#CLE ELUM 2NW   N/A         53  44  71  S1      N/A
#GLENWOOD       N/A         56  47  72  CALM    29.91R
#MANASTASH CYN  N/A         55  40  57  CALM    29.90S
#NELSON 3SW     N/A         52  43  71  CALM    30.11R
#NILE           N/A         55  43  64  W1      29.21R
#TEANAWAY 4NE   N/A         55  47  74  W2      N/A
#TROUT LAKE 1NE N/A         56  46  69  W5      29.91R
#TROUT LAKE 1E  N/A         57  47  69  CALM    29.91S
$$

WAZ521-250510-
SIMCOE HIGHLANDS

CITY            SKY/WX      TMP DP  RH  WIND    PRES   REMARKS
#CENTERVILLE 1SWN/A         56  45  66  W9      29.85R
#GOLDENDALE 1NE N/A         59  38  45  W2      N/A
#GOLDENDALE 4W  N/A         58  51  77  W10     29.96R
#GOODNOE HILLS  N/A         61  47  60  W13     29.81R
#LYLE 6NE       N/A         57  47  69  SW8     29.88R
$$

WAZ026-250510-
KITTITAS VALLEY

CITY            SKY/WX      TMP DP  RH  WIND    PRES   REMARKS
ELLENSBURG AP   CLOUDY      59  43  55  NW20    29.91R
#ELLENSBURG CWU N/A         59  44  57  NW13    29.83R
#ELLENSBURG 3NE N/A         57  45  64  NW9     29.91R
#ELLENSBURG     N/A         61  46  58  NW6     N/A
#ELLENSBURG 1E  N/A         59  N/A N/A CALM    N/A
#ELLENSBURG 13S N/A         63  44  50  E2      N/A
#KITTITAS 4N    N/A         56  43  62  W13     29.94R
#KITTITAS 3S    N/A         58  45  62  NW7     29.86R
#THORP 6N       N/A         53  45  74  W17G29  29.92R
$$

WAZ027-250510-
YAKIMA VALLEY

CITY            SKY/WX      TMP DP  RH  WIND    PRES   REMARKS
SUNNYSIDE AP    CLEAR       63  46  54  NW3     29.86R
YAKIMA AIRPORT  MOCLEAR     64  43  46  W6      29.90R
YAKIMA-VAGABOND CLEAR       62  41  46  N10     29.89R
#DONALD 2NE     N/A         64  22  20  W3      28.72R
#GRANDVIEW      N/A         69  43  39  CALM    29.84S
#MABTON         N/A         66  49  54  SW3     29.85R
#NACHES 2SW     N/A         59  45  60  W9      29.90R
#TERRACE HTS    N/A         64  45  50  N5      29.83R
#TOPPENISH      N/A         66  47  50  CALM    29.77R
#WEST VALLEY    N/A         63  45  52  NW10    29.84R
#W YAKIMA       N/A         62  45  54  NW3     29.87R
#WHITE SWAN 5E  N/A         67  48  50  SW2     29.86R
#WILEY CITY 3W  N/A         60  42  51  CALM    29.87R
$$

WAZ028-250510-
LOWER COLUMBIA BASIN...WASHINGTON

CITY            SKY/WX      TMP DP  RH  WIND    PRES   REMARKS
PASCO           CLEAR       69  44  40  SW7     29.85R
PROSSER AWOS    N/A         61  48  62  SW3     29.88R
RICHLAND AWOS   PTCLDY      69  47  45  S7      29.85R
#BENTON CITY    N/A         67  47  49  S8      29.74R
#CONNELL 5N     N/A         67  38  34  CALM    29.84R
#CONNELL 5NW    N/A         65  45  48  CALM    29.80R
#ELTOPIA 6NW    N/A         67  48  50  CALM    28.83R
#KAHLOTUS       N/A         66  40  38  SW2     29.84R
#KENNEWICK 3S   N/A         66  48  52  N3      29.84R
#PATERSON       N/A         66  49  54  NW6     29.83R
#SAGEMOOR 2W    N/A         68  49  51  CALM    29.68S
#TOUCHET 2S     N/A         61  48  62  CALM    29.82R
#WEST PASCO     N/A         71  47  42  CALM    29.88S
$$

WAZ029-250510-
FOOTHILLS OF THE BLUES...WASHINGTON

CITY            SKY/WX      TMP DP  RH  WIND    PRES   REMARKS
WALLA WALLA AP  CLEAR       58  50  75  E7      29.88R
#CLYDE 6NW      N/A         60  44  55  CALM    29.84R
#DAYTON SCHOOL  N/A         58  41  53  E5      29.91R
#LOWDEN 2SE     N/A         62  52  70  CALM    29.82R
#PLEASANT VIEW 1N/A         61  41  48  CALM    29.89R
#PRESCOTT       N/A         60  51  72  CALM    29.84R
#SUDBURY        N/A         62  N/A N/A CALM    N/A
#WHITMAN COLLEGEN/A         68  48  49  E3      29.89R
#WAITSBURG 8N   N/A         56  18  22  CALM    29.71S
#WALLA WALLA 5E N/A         57  49  75  NE1     N/A
#WHITMAN MISSIONN/A         66  52  61  CALM    29.85R
$$

WAZ030-250510-
BLUE MOUNTAINS...WASHINGTON

CITY            SKY/WX      TMP DP  RH  WIND    PRES   REMARKS
#DIXIE 5SE      N/A         48  41  77  S6      29.85R
$$

ORZ009-041-WAZ024-250510-
COLUMBIA RIVER GORGE

CITY            SKY/WX      TMP DP  RH  WIND    PRES   REMARKS
HOOD RIVER AP   CLEAR       63  45  52  SW3     29.94S
THE DALLES AP   CLEAR       64  43  46  W9      29.92R
#ARLINGTON AIRPON/A         64  47  54  W10     29.88R
#CELILO DOT     N/A         68  43  40  SW8     N/A
#LYLE           N/A         64  50  60  W15     29.93R
#MARYHILL 2W    N/A         63  47  56  NW5     N/A
#MOSIER 1S      N/A         61  34  36  CALM    29.91S
#MURDOCK        N/A         65  47  52  NW14    29.87R
#RUFUS DOT      N/A         68  46  45  W14     N/A
#SMITHIVILLE    N/A         66  47  50  W15G24  29.79F

$$

ORZ510-250510-
NORTH CENTRAL OREGON

CITY            SKY/WX      TMP DP  RH  WIND    PRES   REMARKS
#ANTELOPE       N/A         55  42  61  SW5     29.80R
#CHENOWITH 1W   N/A         57  43  59  W22     N/A
#COW CYN RST AREN/A         54  39  57  W8      N/A
#DUFUR 9E       N/A         54  42  64  W8      29.96R
#GRASS VALLEY   N/A         53  43  69  NW1     N/A
#GRASS VALLEY 1SN/A         54  44  69  NW3     29.89R
#KENT DOT       N/A         55  32  41  N12     N/A
#MAUPIN SCHOOL  N/A         61  45  56  SW1     29.96R
#MORO SCHOOL    N/A         58  48  69  W12     29.94R
#SHANIKO 4NW    N/A         50  -55  1  W8      29.95S
#TYGH VALLEY 2NEN/A         61  43  51  N7      29.90R
#WAPANITIA AIRPON/A         55  44  66  W2      29.93R
#WASCO DOT      N/A         62  41  46  W10     N/A
#WASCO 5NE      N/A         59  46  62  W7      29.89R
$$

ORZ511-250510-
CENTRAL OREGON

CITY            SKY/WX      TMP DP  RH  WIND    PRES   REMARKS
BEND AIRPORT    PTCLDY      54  41  61  CALM    29.99R
MADRAS AIRPORT  MOCLDY      59  45  60  NW13    29.99R
PRINEVILLE AP   CLOUDY      54  41  61  N8      29.99R
REDMOND AIRPORT MOCLDY      55  39  55  NW6     29.98R
#ASHWOOD SCHOOL N/A         55  42  61  CALM    29.93R
#BEND 1SW       N/A         52  43  71  CALM    N/A
#BEND-AWBREY    N/A         54  42  64  N1      29.94R
#BEND-KIM LN    N/A         53  42  66  CALM    29.96R
#CULVER         N/A         55  42  61  CALM    29.90R
#CULVER 8W      N/A         53  41  64  CALM    29.97S
#LAKE BILLY CHINN/A         56  N/A N/A NW16    30.04R
#MADRAS 4S      N/A         54  12  18  CALM    30.04R
#POWELL BUTTE 3EN/A         54  41  61  N8      N/A
#POWELL BUTTE   N/A         53  41  64  N1      29.87R
#PRINEVILLE 3N  N/A         54  42  64  CALM    29.93R
#WARM SPRINGS   N/A         59  44  57  CALM    29.93R

$$


ORZ509-250510-
EAST SLOPES OF OREGON CASCADES

CITY            SKY/WX      TMP DP  RH  WIND    PRES   REMARKS
SISTERS AWOS    N/A         54  41  61  W5      29.97R
#BLUE BOX PASS  N/A         45  N/A N/A NW5     N/A
#CAMP SHERMAN   N/A         51  40  66  CALM    30.00F
#LA PINE DOT    N/A         52  30  43  W10     N/A
#LA PINE 4NW    N/A         50  39  66  CALM    30.00R
#LAVA BUTTE DOT N/A         50  36  58  CALM    N/A
#SISTERS AIRPOR N/A         32  32  100 CALM    30.17S
#SISTERS ODOT   N/A         54  N/A N/A SW2     N/A
#SISTERS 3N     N/A         51  36  56  CALM    29.97R
#SUNRIVER       N/A         52  42  69  CALM    29.98R
#TUMALO 3W      N/A         52  41  66  N7      29.82R
#WANOGA BUTTE D N/A         44  34  68  CALM    N/A

$$

ORZ044-250510-
LOWER COLUMBIA BASIN...OREGON

CITY            SKY/WX      TMP DP  RH  WIND    PRES   REMARKS
HERMISTON       CLEAR       65  47  52  W9      29.87R
#BOARDMAN SCHOOLN/A         66  49  54  SW7     29.85R
#ECHO 8SW       N/A         65  45  48  W7      29.88R
#I-84 EX 198 DOTN/A         66  41  40  E8      N/A
#UMATILLA SCHOOLN/A         66  56  70  S2      29.92R
#UMATILLA       N/A         66  46  48  SW2     29.78R
$$

ORZ507-250510-
NORTHERN FOOTHILLS OF THE BLUES

CITY            SKY/WX      TMP DP  RH  WIND    PRES   REMARKS
PENDLETON AIRPT PTCLDY      59  40  49  W10     29.88R
#ADAMS 3WNW     N/A         60  46  60  CALM    29.85R
#ATHENA         N/A         62  49  62  CALM    29.88R
#CAYUSE         N/A         63  48  58  E2      29.85R
#HELIX SCHOOL   N/A         59  45  60  CALM    29.86R
#HELIX 3N       N/A         60  40  47  W2      29.87R
#HELIX 6SW      N/A         60  46  60  CALM    29.88
#HOLDMAN 5SE    N/A         55  46  72  CALM    29.88R
#HOLDMAN 6E     N/A         61  42  50  CALM    29.67R
#M-F GROVE ELEM N/A         62  44  52  CALM    29.85R
#M-FREEWATER 5SEN/A         62  47  58  CALM    29.88R
#PENDLETON DNTN N/A         65  37  35  CALM    29.89S
#PDT AQUATIC CTRN/A         65  37  35  NW2     29.90S
#PDT SUNRIDGE   N/A         64  41  43  CALM    29.89R
#PENDLETON 7NW  N/A         65  47  52  CALM    32.29S
#PILOT ROCK 1S  N/A         62  43  50  CALM    29.91R
#PILOT ROCK     N/A         62  44  52  W2      29.92R
#TUTUILLA       N/A         57  47  69  CALM    29.87R
#UMAPINE 2E     N/A         61  51  70  CALM    29.83R
#WESTON SCHOOL  N/A         58  43  57  CALM    29.78R

$$

ORZ508-250510-
SOUTHERN FOOTHILLS OF THE BLUES

CITY            SKY/WX      TMP DP  RH  WIND    PRES   REMARKS
LEXINGTON       PTCLDY      59  43  55  W7      29.95R
#AJAX           N/A         56  38  51  S7      27.69R
#CONDON SCHOOL  N/A         54  43  66  NW6     29.91R
#CONDON 5W      N/A         50  39  66  NW8     29.93R
#FOSSIL SCHOOL  N/A         58  42  55  N1      29.89R
#HEPPNER EOC    N/A         58  43  57  W5      29.83R
#HEPPNER 4NE    N/A         55  42  61  SW7     29.88R
#LEXINGTON 2SE  N/A         61  43  51  CALM    29.87R
#RUGGS 5NE      N/A         54  41  61  W5      30.14S
#RUGGS 2SW      N/A         52  43  71  W6      29.91R

$$

ORZ502-503-250510-
BLUE MOUNTAINS

CITY            SKY/WX      TMP DP  RH  WIND    PRES   REMARKS
MEACHAM         PTCLDY      48  39  71  CALM    29.95R
#BATTLE MTN DOT N/A         50  43  77  CALM    N/A
#CUTSFORTH PARK N/A         49  45  86  CALM    29.73R
#HARDMAN 10S    N/A         61  34  36  N5      30.22R
#HEPPNER 15SE   N/A         50  42  74  SW1     25.49R
#LADD CYN SMT   N/A         51  37  59  NW3     N/A
#LADD CREEK ODOTN/A         55  41  59  NE3     N/A
#LONG CREEK HS  N/A         52  45  77  CALM    N/A
#N POWDER DOT   N/A         53  40  61  NW8     N/A
#PIKES PEAK     N/A         56  40  55  CALM    27.99S
#TOLLGATE       N/A         46  42  86  CALM    29.84R
#TROY SCHOOL    N/A         54  47  77  CALM    29.75R
#UKIAH          N/A         51  42  71  CALM    29.82R
#WESTON 4E      N/A         57  42  57  CALM    29.85R
$$

ORZ505-250510-
JOHN DAY BASIN

CITY            SKY/WX      TMP DP  RH  WIND    PRES   REMARKS
JOHN DAY        PTCLDY      56  39  53  N6      29.94R
#DAYVILLE SCHOOLN/A         60  39  46  CALM    29.90R
#MITCHELL       N/A         56  43  62  CALM    30.10R
#MITCHELL 8NW   N/A         53  39  59  CALM    30.11R
#MONUMENT HS    N/A         61  40  46  CALM    29.85S
#MT. VERNON 5SE N/A         53  39  59  S1      29.90R
#SPRAY SCHOOL   N/A         57  N/A N/A CALM    N/A
#WINLOCK        N/A         48  41  77  CALM    29.91R
$$

ORZ506-250510-
OCHOCO AND JOHN DAY HIGHLANDS

CITY            SKY/WX      TMP DP  RH  WIND    PRES   REMARKS
#HORSE RIDGE DO N/A         51  38  61  NW8     N/A
#KEYES SMT DOT  N/A         51  37  59  N8      N/A
#PAULINA SCHOOL N/A         55  38  53  NW6     N/A
#PINE MTN OBS   N/A         40  37  89  NW5     N/A
#PRAIRIE CITY   N/A         54  40  59  CALM    30.06R
#SENECA 9NW     N/A         47  38  71  CALM    29.92R
$$

ORZ049-250510-
GRANDE RONDE VALLEY

CITY            SKY/WX      TMP DP  RH  WIND    PRES   REMARKS
LA GRANDE       MOCLDY      54  37  52  NW7     29.93R
#COVE           N/A         55  46  72  CALM    29.96R
#COVE SCHOOL    N/A         58  43  57  CALM    29.94R
#COVE 6NW       N/A         52  43  71  N5      29.80R
#ELGIN 3N       N/A         55  42  61  CALM    29.92R
#ELGIN 1E       N/A         55  45  69  CALM    N/A
#IMBLER SCHOOL  N/A         54  43  66  NW5     29.89R
#ISLAND CITY 4N N/A         60  50  69  CALM    30.00R
#LADD CYN DOT   N/A         56  43  62  NW7     N/A
#UNION 1S       N/A         55  45  69  CALM    29.80R
$$

ORZ050-250510-
WALLOWA COUNTY

CITY            SKY/WX      TMP DP  RH  WIND    PRES   REMARKS
#ENTERPRISE AP  N/A         49  29  46  CALM    29.90S
#ENTERPRISE HS  N/A         49  45  86  CALM    29.97S
#IMNAHA SCHOOL  N/A         57  46  67  S1      29.92R
#IMNAHA 10S     N/A         51  46  83  SW2     29.94R
#JOSEPH 3N      N/A         47  40  76  CALM    29.98F
#JOSEPH 3W      N/A         44  43  96  SW1     29.81S
#LOSTINE        N/A         48  45  89  S2      29.72S
#LOSTINE 3SE    N/A         49  45  86  CALM    29.95S
#MT HOWARD 8000 N/A         33  32  96  W2      30.01R
#PROMISE 1S     N/A         45  41  86  CALM    30.02R
#WALLOWA SCHOOL N/A         49  46  89  CALM    29.92R



$$



USA.gov is the U.S. government's official web portal to all federal, state and local government web resources and services.